contact:dominique.lefevre@mio.osupytheas.fr, maurice.libes@osupytheas.fr, didier.mallarino@osupytheas.fr
Project:EMSO http://www.emso-fr.org/EMSO-France
Depth: 2436.0 m
Title:EMSO Ligure Ouest : Data MII capteur CSTAR
DateTime,Latitude,Longitude,Instrument_Serial,Reference_Counts,Signal_Counts,Corrected_Signal_raw_counts,Calculated_Beam_c_inverse_meters,Internal_thermistor_counts
DateTime,Latitude,Longitude,Instrument_Serial,Reference_Counts,Signal_Counts,Corrected_Signal_raw_counts,Calculated_Beam_c_inverse_meters,Internal_thermistor_counts
2019-12-06T00:02:27,42.805,6.029,CST-1368DR,7219,10120,15298,0.082,551
2019-12-06T00:05:29,42.805,6.029,CST-1368DR,7219,10120,15298,0.082,551
2019-12-06T00:08:31,42.805,6.029,CST-1368DR,7219,10120,15298,0.082,551
2019-12-06T00:11:33,42.805,6.029,CST-1368DR,7219,10117,15294,0.083,551
2019-12-06T00:14:34,42.805,6.029,CST-1368DR,7219,10119,15297,0.083,551
2019-12-06T00:17:36,42.805,6.029,CST-1368DR,7219,10119,15298,0.082,551
2019-12-06T00:20:37,42.805,6.029,CST-1368DR,7219,10120,15299,0.082,550
2019-12-06T00:23:39,42.805,6.029,CST-1368DR,7219,10120,15298,0.082,551
2019-12-06T00:26:41,42.805,6.029,CST-1368DR,7218,10121,15301,0.082,551
2019-12-06T00:29:43,42.805,6.029,CST-1368DR,7219,10120,15299,0.082,551
2019-12-06T00:32:45,42.805,6.029,CST-1368DR,7218,10120,15301,0.082,551
2019-12-06T00:35:46,42.805,6.029,CST-1368DR,7219,10120,15298,0.082,551
2019-12-06T00:38:48,42.805,6.029,CST-1368DR,7219,10120,15299,0.082,551
2019-12-06T00:41:49,42.805,6.029,CST-1368DR,7219,10120,15298,0.082,551
2019-12-06T00:44:51,42.805,6.029,CST-1368DR,7219,10119,15297,0.083,551
2019-12-06T00:47:53,42.805,6.029,CST-1368DR,7219,10120,15299,0.082,551
2019-12-06T00:50:54,42.805,6.029,CST-1368DR,7219,10119,15297,0.083,551
2019-12-06T00:53:56,42.805,6.029,CST-1368DR,7219,10120,15298,0.082,551
2019-12-06T00:56:58,42.805,6.029,CST-1368DR,7218,10120,15300,0.082,551
2019-12-06T00:59:59,42.805,6.029,CST-1368DR,7218,10119,15299,0.082,551
2019-12-06T01:03:01,42.805,6.029,CST-1368DR,7218,10119,15298,0.082,551
2019-12-06T01:06:03,42.805,6.029,CST-1368DR,7218,10119,15299,0.082,550
2019-12-06T01:09:04,42.805,6.029,CST-1368DR,7218,10119,15299,0.082,550
2019-12-06T01:12:06,42.805,6.029,CST-1368DR,7218,10119,15299,0.082,551
2019-12-06T01:15:07,42.805,6.029,CST-1368DR,7218,10119,15299,0.082,551
2019-12-06T01:18:09,42.805,6.029,CST-1368DR,7218,10119,15298,0.082,551
2019-12-06T01:21:11,42.805,6.029,CST-1368DR,7218,10119,15299,0.082,551
2019-12-06T01:24:12,42.805,6.029,CST-1368DR,7218,10119,15299,0.082,551
2019-12-06T01:27:14,42.805,6.029,CST-1368DR,7218,10118,15298,0.082,551
2019-12-06T01:30:15,42.805,6.029,CST-1368DR,7218,10118,15297,0.083,551
2019-12-06T01:33:17,42.805,6.029,CST-1368DR,7218,10119,15299,0.082,551
2019-12-06T01:36:19,42.805,6.029,CST-1368DR,7218,10116,15294,0.083,551
2019-12-06T01:39:20,42.805,6.029,CST-1368DR,7218,10116,15294,0.083,551
2019-12-06T01:42:22,42.805,6.029,CST-1368DR,7218,10115,15293,0.084,551
2019-12-06T01:45:24,42.805,6.029,CST-1368DR,7218,10114,15291,0.084,551
2019-12-06T01:48:25,42.805,6.029,CST-1368DR,7218,10116,15294,0.083,551
2019-12-06T01:51:27,42.805,6.029,CST-1368DR,7218,10115,15293,0.084,551
2019-12-06T01:54:29,42.805,6.029,CST-1368DR,7218,10116,15295,0.083,551
2019-12-06T01:57:30,42.805,6.029,CST-1368DR,7218,10116,15294,0.083,551
2019-12-06T02:00:32,42.805,6.029,CST-1368DR,7218,10115,15292,0.084,551
2019-12-06T02:03:33,42.805,6.029,CST-1368DR,7218,10115,15293,0.084,551
2019-12-06T02:06:35,42.805,6.029,CST-1368DR,7218,10116,15295,0.083,551
2019-12-06T02:09:37,42.805,6.029,CST-1368DR,7218,10116,15294,0.083,551
2019-12-06T02:12:38,42.805,6.029,CST-1368DR,7218,10116,15294,0.083,551
2019-12-06T02:15:40,42.805,6.029,CST-1368DR,7218,10115,15293,0.084,551
2019-12-06T02:18:42,42.805,6.029,CST-1368DR,7218,10114,15292,0.084,551
2019-12-06T02:21:43,42.805,6.029,CST-1368DR,7218,10115,15293,0.084,551
2019-12-06T02:24:45,42.805,6.029,CST-1368DR,7218,10115,15293,0.084,551
2019-12-06T02:27:46,42.805,6.029,CST-1368DR,7218,10115,15293,0.084,551
2019-12-06T02:30:48,42.805,6.029,CST-1368DR,7218,10114,15291,0.084,550
2019-12-06T02:33:50,42.805,6.029,CST-1368DR,7218,10115,15293,0.084,551
2019-12-06T02:36:51,42.805,6.029,CST-1368DR,7218,10113,15290,0.084,551
2019-12-06T02:39:53,42.805,6.029,CST-1368DR,7218,10115,15293,0.084,551
2019-12-06T02:42:55,42.805,6.029,CST-1368DR,7218,10115,15293,0.084,551
2019-12-06T02:45:56,42.805,6.029,CST-1368DR,7218,10115,15292,0.084,551
2019-12-06T02:48:58,42.805,6.029,CST-1368DR,7218,10114,15291,0.084,551
2019-12-06T02:52:00,42.805,6.029,CST-1368DR,7218,10115,15293,0.084,551
2019-12-06T02:55:01,42.805,6.029,CST-1368DR,7218,10115,15293,0.084,551
2019-12-06T02:58:03,42.805,6.029,CST-1368DR,7218,10116,15295,0.083,551
2019-12-06T03:01:05,42.805,6.029,CST-1368DR,7218,10115,15293,0.084,551
2019-12-06T03:04:06,42.805,6.029,CST-1368DR,7218,10116,15294,0.083,551
2019-12-06T03:07:08,42.805,6.029,CST-1368DR,7218,10114,15291,0.084,550
2019-12-06T03:10:09,42.805,6.029,CST-1368DR,7218,10115,15293,0.084,551
2019-12-06T03:13:11,42.805,6.029,CST-1368DR,7218,10115,15293,0.084,551
2019-12-06T03:16:13,42.805,6.029,CST-1368DR,7218,10116,15294,0.083,551
2019-12-06T03:19:14,42.805,6.029,CST-1368DR,7218,10116,15294,0.083,551
2019-12-06T03:22:16,42.805,6.029,CST-1368DR,7218,10114,15292,0.084,551
2019-12-06T03:25:18,42.805,6.029,CST-1368DR,7218,10115,15293,0.084,551
2019-12-06T03:28:19,42.805,6.029,CST-1368DR,7218,10116,15294,0.083,551
2019-12-06T03:31:21,42.805,6.029,CST-1368DR,7218,10115,15293,0.084,551
2019-12-06T03:34:22,42.805,6.029,CST-1368DR,7218,10115,15293,0.084,551
2019-12-06T03:37:24,42.805,6.029,CST-1368DR,7218,10115,15293,0.084,551
2019-12-06T03:40:26,42.805,6.029,CST-1368DR,7217,10114,15293,0.084,551
2019-12-06T03:43:27,42.805,6.029,CST-1368DR,7217,10115,15294,0.083,551
2019-12-06T03:46:29,42.805,6.029,CST-1368DR,7217,10115,15295,0.083,551
2019-12-06T03:49:31,42.805,6.029,CST-1368DR,7217,10114,15294,0.083,550
2019-12-06T03:52:32,42.805,6.029,CST-1368DR,7217,10115,15295,0.083,551
2019-12-06T03:55:34,42.805,6.029,CST-1368DR,7217,10116,15297,0.083,551
2019-12-06T03:58:36,42.805,6.029,CST-1368DR,7217,10116,15296,0.083,551
2019-12-06T04:01:37,42.805,6.029,CST-1368DR,7217,10115,15294,0.083,551
2019-12-06T04:04:39,42.805,6.029,CST-1368DR,7217,10115,15295,0.083,551
2019-12-06T04:07:40,42.805,6.029,CST-1368DR,7217,10113,15292,0.084,550
2019-12-06T04:10:42,42.805,6.029,CST-1368DR,7217,10114,15293,0.084,551
2019-12-06T04:13:44,42.805,6.029,CST-1368DR,7217,10116,15296,0.083,551
2019-12-06T04:16:45,42.805,6.029,CST-1368DR,7217,10115,15294,0.083,551
2019-12-06T04:19:47,42.805,6.029,CST-1368DR,7217,10115,15295,0.083,551
2019-12-06T04:22:49,42.805,6.029,CST-1368DR,7217,10115,15295,0.083,551
2019-12-06T04:25:50,42.805,6.029,CST-1368DR,7217,10114,15293,0.084,551
2019-12-06T04:28:52,42.805,6.029,CST-1368DR,7217,10114,15293,0.084,551
2019-12-06T04:31:54,42.805,6.029,CST-1368DR,7217,10115,15295,0.083,551
2019-12-06T04:34:55,42.805,6.029,CST-1368DR,7217,10114,15293,0.084,551
2019-12-06T04:37:57,42.805,6.029,CST-1368DR,7217,10115,15295,0.083,551
2019-12-06T04:40:59,42.805,6.029,CST-1368DR,7217,10115,15295,0.083,551
2019-12-06T04:44:00,42.805,6.029,CST-1368DR,7217,10115,15294,0.083,551
2019-12-06T04:47:02,42.805,6.029,CST-1368DR,7217,10114,15293,0.084,551
2019-12-06T04:50:03,42.805,6.029,CST-1368DR,7217,10115,15295,0.083,551
2019-12-06T04:53:05,42.805,6.029,CST-1368DR,7217,10115,15295,0.083,551
2019-12-06T04:56:07,42.805,6.029,CST-1368DR,7217,10115,15295,0.083,551
2019-12-06T04:59:08,42.805,6.029,CST-1368DR,7217,10113,15291,0.084,551
2019-12-06T05:02:10,42.805,6.029,CST-1368DR,7217,10115,15294,0.083,551
2019-12-06T05:05:12,42.805,6.029,CST-1368DR,7217,10114,15294,0.083,551
2019-12-06T05:08:13,42.805,6.029,CST-1368DR,7217,10115,15294,0.083,551
2019-12-06T05:11:15,42.805,6.029,CST-1368DR,7217,10115,15295,0.083,551
2019-12-06T05:14:16,42.805,6.029,CST-1368DR,7217,10115,15294,0.083,551
2019-12-06T05:17:18,42.805,6.029,CST-1368DR,7217,10112,15290,0.084,551
2019-12-06T05:20:20,42.805,6.029,CST-1368DR,7217,10112,15291,0.084,551
2019-12-06T05:23:21,42.805,6.029,CST-1368DR,7217,10114,15294,0.083,551
2019-12-06T05:26:23,42.805,6.029,CST-1368DR,7217,10115,15294,0.083,551
2019-12-06T05:29:25,42.805,6.029,CST-1368DR,7217,10115,15294,0.083,551
2019-12-06T05:32:26,42.805,6.029,CST-1368DR,7217,10115,15295,0.083,551
2019-12-06T05:35:28,42.805,6.029,CST-1368DR,7217,10113,15292,0.084,551
2019-12-06T05:38:29,42.805,6.029,CST-1368DR,7217,10114,15293,0.084,551
2019-12-06T05:41:31,42.805,6.029,CST-1368DR,7217,10113,15292,0.084,551
2019-12-06T05:44:33,42.805,6.029,CST-1368DR,7217,10113,15292,0.084,551
2019-12-06T05:47:34,42.805,6.029,CST-1368DR,7217,10112,15291,0.084,550
2019-12-06T05:50:36,42.805,6.029,CST-1368DR,7217,10114,15293,0.084,551
2019-12-06T05:53:38,42.805,6.029,CST-1368DR,7217,10113,15292,0.084,551
2019-12-06T05:56:39,42.805,6.029,CST-1368DR,7217,10114,15294,0.083,551
2019-12-06T05:59:42,42.805,6.029,CST-1368DR,7217,10110,15287,0.085,551
2019-12-06T06:02:43,42.805,6.029,CST-1368DR,7217,10114,15294,0.083,551
2019-12-06T06:05:45,42.805,6.029,CST-1368DR,7217,10115,15295,0.083,551
2019-12-06T06:08:46,42.805,6.029,CST-1368DR,7217,10114,15293,0.084,551
2019-12-06T06:11:48,42.805,6.029,CST-1368DR,7217,10114,15293,0.084,550
2019-12-06T06:14:50,42.805,6.029,CST-1368DR,7217,10113,15292,0.084,551
2019-12-06T06:17:51,42.805,6.029,CST-1368DR,7217,10114,15293,0.084,551
2019-12-06T06:20:53,42.805,6.029,CST-1368DR,7217,10113,15292,0.084,551
2019-12-06T06:23:55,42.805,6.029,CST-1368DR,7217,10112,15291,0.084,550
2019-12-06T06:26:56,42.805,6.029,CST-1368DR,7217,10112,15290,0.084,550
2019-12-06T06:29:58,42.805,6.029,CST-1368DR,7217,10113,15292,0.084,551
2019-12-06T06:32:59,42.805,6.029,CST-1368DR,7217,10113,15291,0.084,551
2019-12-06T06:36:01,42.805,6.029,CST-1368DR,7217,10114,15293,0.084,551
2019-12-06T06:39:03,42.805,6.029,CST-1368DR,7217,10113,15292,0.084,551
2019-12-06T06:42:04,42.805,6.029,CST-1368DR,7217,10113,15291,0.084,550
2019-12-06T06:45:06,42.805,6.029,CST-1368DR,7217,10113,15292,0.084,551
2019-12-06T06:48:08,42.805,6.029,CST-1368DR,7217,10112,15291,0.084,551
2019-12-06T06:51:09,42.805,6.029,CST-1368DR,7217,10112,15291,0.084,551
2019-12-06T06:54:11,42.805,6.029,CST-1368DR,7217,10112,15291,0.084,551
2019-12-06T06:57:12,42.805,6.029,CST-1368DR,7216,10113,15294,0.083,551
2019-12-06T07:00:14,42.805,6.029,CST-1368DR,7217,10113,15292,0.084,551
2019-12-06T07:03:16,42.805,6.029,CST-1368DR,7216,10112,15292,0.084,551
2019-12-06T07:06:17,42.805,6.029,CST-1368DR,7217,10112,15290,0.084,551
2019-12-06T07:09:19,42.805,6.029,CST-1368DR,7216,10112,15292,0.084,550
2019-12-06T07:12:21,42.805,6.029,CST-1368DR,7216,10113,15294,0.083,551
2019-12-06T07:15:22,42.805,6.029,CST-1368DR,7216,10110,15289,0.085,551
2019-12-06T07:18:24,42.805,6.029,CST-1368DR,7216,10112,15292,0.084,551
2019-12-06T07:21:25,42.805,6.029,CST-1368DR,7216,10111,15291,0.084,551
2019-12-06T07:24:27,42.805,6.029,CST-1368DR,7216,10112,15292,0.084,551
2019-12-06T07:27:29,42.805,6.029,CST-1368DR,7216,10109,15288,0.085,551
2019-12-06T07:30:30,42.805,6.029,CST-1368DR,7216,10109,15288,0.085,551
2019-12-06T07:33:32,42.805,6.029,CST-1368DR,7216,10113,15293,0.084,551
2019-12-06T07:36:34,42.805,6.029,CST-1368DR,7216,10111,15291,0.084,551
2019-12-06T07:39:35,42.805,6.029,CST-1368DR,7216,10111,15291,0.084,551
2019-12-06T07:42:37,42.805,6.029,CST-1368DR,7216,10110,15290,0.084,551
2019-12-06T07:45:38,42.805,6.029,CST-1368DR,7216,10111,15290,0.084,551
2019-12-06T07:48:40,42.805,6.029,CST-1368DR,7216,10106,15283,0.086,551
2019-12-06T07:51:42,42.805,6.029,CST-1368DR,7216,10110,15289,0.085,551
2019-12-06T07:54:43,42.805,6.029,CST-1368DR,7216,10111,15291,0.084,551
2019-12-06T07:57:45,42.805,6.029,CST-1368DR,7216,10111,15291,0.084,551
2019-12-06T08:00:47,42.805,6.029,CST-1368DR,7216,10110,15289,0.085,551
2019-12-06T08:03:48,42.805,6.029,CST-1368DR,7216,10111,15291,0.084,551
2019-12-06T08:06:50,42.805,6.029,CST-1368DR,7216,10110,15289,0.085,551
2019-12-06T08:09:51,42.805,6.029,CST-1368DR,7216,10110,15290,0.084,551
2019-12-06T08:12:53,42.805,6.029,CST-1368DR,7216,10110,15290,0.084,551
2019-12-06T08:15:55,42.805,6.029,CST-1368DR,7216,10110,15290,0.084,551
2019-12-06T08:18:56,42.805,6.029,CST-1368DR,7216,10110,15289,0.085,551
2019-12-06T08:21:58,42.805,6.029,CST-1368DR,7216,10111,15291,0.084,551
2019-12-06T08:25:00,42.805,6.029,CST-1368DR,7216,10110,15289,0.085,551
2019-12-06T08:28:01,42.805,6.029,CST-1368DR,7216,10109,15288,0.085,550
2019-12-06T08:31:03,42.805,6.029,CST-1368DR,7216,10111,15291,0.084,550
2019-12-06T08:34:05,42.805,6.029,CST-1368DR,7216,10111,15291,0.084,551
2019-12-06T08:37:06,42.805,6.029,CST-1368DR,7216,10111,15291,0.084,551
2019-12-06T08:40:08,42.805,6.029,CST-1368DR,7216,10110,15290,0.084,551
2019-12-06T08:43:10,42.805,6.029,CST-1368DR,7216,10112,15292,0.084,551
2019-12-06T08:46:11,42.805,6.029,CST-1368DR,7216,10111,15291,0.084,551
2019-12-06T08:49:13,42.805,6.029,CST-1368DR,7216,10109,15288,0.085,550
2019-12-06T08:52:14,42.805,6.029,CST-1368DR,7216,10110,15290,0.084,551
2019-12-06T08:55:16,42.805,6.029,CST-1368DR,7216,10110,15289,0.085,551
2019-12-06T08:58:18,42.805,6.029,CST-1368DR,7216,10110,15289,0.085,551
2019-12-06T09:01:20,42.805,6.029,CST-1368DR,7216,10112,15292,0.084,551
2019-12-06T09:04:21,42.805,6.029,CST-1368DR,7216,10112,15292,0.084,551
2019-12-06T09:07:23,42.805,6.029,CST-1368DR,7216,10109,15288,0.085,551
2019-12-06T09:10:25,42.805,6.029,CST-1368DR,7216,10111,15291,0.084,551
2019-12-06T09:13:26,42.805,6.029,CST-1368DR,7216,10111,15290,0.084,551
2019-12-06T09:16:28,42.805,6.029,CST-1368DR,7216,10111,15290,0.084,551
2019-12-06T09:19:29,42.805,6.029,CST-1368DR,7216,10110,15289,0.085,551
2019-12-06T09:22:31,42.805,6.029,CST-1368DR,7216,10110,15289,0.085,551
2019-12-06T09:25:33,42.805,6.029,CST-1368DR,7216,10111,15291,0.084,551
2019-12-06T09:28:34,42.805,6.029,CST-1368DR,7216,10111,15291,0.084,551
2019-12-06T09:31:36,42.805,6.029,CST-1368DR,7216,10110,15290,0.084,551
2019-12-06T09:34:38,42.805,6.029,CST-1368DR,7216,10111,15291,0.084,551
2019-12-06T09:37:39,42.805,6.029,CST-1368DR,7216,10111,15291,0.084,550
2019-12-06T09:40:41,42.805,6.029,CST-1368DR,7216,10111,15290,0.084,551
2019-12-06T09:43:43,42.805,6.029,CST-1368DR,7216,10110,15289,0.085,551
2019-12-06T09:46:44,42.805,6.029,CST-1368DR,7216,10111,15291,0.084,551
2019-12-06T09:49:46,42.805,6.029,CST-1368DR,7216,10112,15292,0.084,551
2019-12-06T09:52:47,42.805,6.029,CST-1368DR,7216,10110,15290,0.084,551
2019-12-06T09:55:49,42.805,6.029,CST-1368DR,7216,10111,15291,0.084,551
2019-12-06T09:58:51,42.805,6.029,CST-1368DR,7216,10111,15291,0.084,550
2019-12-06T10:01:53,42.805,6.029,CST-1368DR,7216,10110,15289,0.085,550
2019-12-06T10:04:54,42.805,6.029,CST-1368DR,7216,10111,15290,0.084,551
2019-12-06T10:07:56,42.805,6.029,CST-1368DR,7216,10110,15290,0.084,551
2019-12-06T10:10:57,42.805,6.029,CST-1368DR,7216,10110,15289,0.085,551
2019-12-06T10:13:59,42.805,6.029,CST-1368DR,7216,10110,15290,0.084,551
2019-12-06T10:17:01,42.805,6.029,CST-1368DR,7215,10111,15293,0.084,550
2019-12-06T10:20:02,42.805,6.029,CST-1368DR,7216,10111,15291,0.084,550
2019-12-06T10:23:04,42.805,6.029,CST-1368DR,7216,10112,15292,0.084,551
2019-12-06T10:26:06,42.805,6.029,CST-1368DR,7215,10110,15292,0.084,550
2019-12-06T10:29:07,42.805,6.029,CST-1368DR,7215,10110,15292,0.084,551
2019-12-06T10:32:09,42.805,6.029,CST-1368DR,7216,10111,15291,0.084,551
2019-12-06T10:35:11,42.805,6.029,CST-1368DR,7215,10110,15291,0.084,551
2019-12-06T10:38:12,42.805,6.029,CST-1368DR,7215,10112,15294,0.083,550
2019-12-06T10:41:14,42.805,6.029,CST-1368DR,7215,10111,15293,0.084,551
2019-12-06T10:44:15,42.805,6.029,CST-1368DR,7215,10111,15293,0.084,551
2019-12-06T10:47:17,42.805,6.029,CST-1368DR,7215,10109,15290,0.084,551
2019-12-06T10:50:19,42.805,6.029,CST-1368DR,7215,10110,15292,0.084,551
2019-12-06T10:53:20,42.805,6.029,CST-1368DR,7215,10110,15291,0.084,550
2019-12-06T10:56:22,42.805,6.029,CST-1368DR,7215,10110,15291,0.084,551
2019-12-06T10:59:24,42.805,6.029,CST-1368DR,7215,10109,15290,0.084,551
2019-12-06T11:02:25,42.805,6.029,CST-1368DR,7215,10110,15292,0.084,551
2019-12-06T11:05:27,42.805,6.029,CST-1368DR,7215,10110,15291,0.084,551
2019-12-06T11:08:28,42.805,6.029,CST-1368DR,7215,10110,15292,0.084,551
2019-12-06T11:11:30,42.805,6.029,CST-1368DR,7215,10109,15289,0.085,551
2019-12-06T11:14:32,42.805,6.029,CST-1368DR,7215,10110,15291,0.084,551
2019-12-06T11:17:33,42.805,6.029,CST-1368DR,7215,10108,15288,0.085,550
2019-12-06T11:20:35,42.805,6.029,CST-1368DR,7215,10111,15293,0.084,551
2019-12-06T11:23:37,42.805,6.029,CST-1368DR,7215,10109,15289,0.085,551
2019-12-06T11:26:38,42.805,6.029,CST-1368DR,7215,10109,15290,0.084,551
2019-12-06T11:29:41,42.805,6.029,CST-1368DR,7215,10111,15293,0.084,551
2019-12-06T11:32:42,42.805,6.029,CST-1368DR,7215,10111,15293,0.084,551
2019-12-06T11:35:44,42.805,6.029,CST-1368DR,7215,10111,15293,0.084,550
2019-12-06T11:38:45,42.805,6.029,CST-1368DR,7215,10109,15290,0.084,550
2019-12-06T11:41:47,42.805,6.029,CST-1368DR,7215,10110,15291,0.084,550
2019-12-06T11:44:49,42.805,6.029,CST-1368DR,7215,10108,15288,0.085,551
2019-12-06T11:47:50,42.805,6.029,CST-1368DR,7215,10107,15287,0.085,551
2019-12-06T11:50:52,42.805,6.029,CST-1368DR,7214,10096,15273,0.089,551
2019-12-06T11:53:54,42.805,6.029,CST-1368DR,7214,10106,15288,0.085,551
2019-12-06T11:56:55,42.805,6.029,CST-1368DR,7214,10109,15292,0.084,551
2019-12-06T11:59:57,42.805,6.029,CST-1368DR,7214,10109,15292,0.084,551
2019-12-06T12:02:58,42.805,6.029,CST-1368DR,7214,10104,15285,0.086,551
2019-12-06T12:06:00,42.805,6.029,CST-1368DR,7214,10106,15287,0.085,550
2019-12-06T12:09:02,42.805,6.029,CST-1368DR,7215,10107,15287,0.085,551
2019-12-06T12:12:03,42.805,6.029,CST-1368DR,7215,10109,15290,0.084,551
2019-12-06T12:15:05,42.805,6.029,CST-1368DR,7215,10094,15267,0.090,550
2019-12-06T12:18:07,42.805,6.029,CST-1368DR,7215,10108,15288,0.085,551
2019-12-06T12:21:08,42.805,6.029,CST-1368DR,7215,10109,15289,0.085,551
2019-12-06T12:24:10,42.805,6.029,CST-1368DR,7215,10108,15288,0.085,551
2019-12-06T12:27:11,42.805,6.029,CST-1368DR,7215,10106,15285,0.086,551
2019-12-06T12:30:13,42.805,6.029,CST-1368DR,7215,10109,15290,0.084,551
2019-12-06T12:33:15,42.805,6.029,CST-1368DR,7215,10106,15285,0.086,551
2019-12-06T12:36:16,42.805,6.029,CST-1368DR,7215,10108,15288,0.085,551
2019-12-06T12:39:18,42.805,6.029,CST-1368DR,7215,10109,15289,0.085,551
2019-12-06T12:42:20,42.805,6.029,CST-1368DR,7215,10110,15291,0.084,551
2019-12-06T12:45:21,42.805,6.029,CST-1368DR,7215,10110,15291,0.084,551
2019-12-06T12:48:23,42.805,6.029,CST-1368DR,7215,10110,15292,0.084,551
2019-12-06T12:51:24,42.805,6.029,CST-1368DR,7215,10110,15291,0.084,551
2019-12-06T12:54:26,42.805,6.029,CST-1368DR,7215,10110,15291,0.084,551
2019-12-06T12:57:28,42.805,6.029,CST-1368DR,7215,10108,15288,0.085,551
2019-12-06T13:00:30,42.805,6.029,CST-1368DR,7215,10110,15291,0.084,551
2019-12-06T13:03:31,42.805,6.029,CST-1368DR,7215,10111,15292,0.084,551
2019-12-06T13:06:33,42.805,6.029,CST-1368DR,7215,10111,15293,0.084,551
2019-12-06T13:09:34,42.805,6.029,CST-1368DR,7215,10110,15291,0.084,551
2019-12-06T13:12:36,42.805,6.029,CST-1368DR,7215,10108,15289,0.085,551
2019-12-06T13:15:38,42.805,6.029,CST-1368DR,7215,10109,15290,0.084,551
2019-12-06T13:18:39,42.805,6.029,CST-1368DR,7215,10110,15291,0.084,551
2019-12-06T13:21:41,42.805,6.029,CST-1368DR,7215,10110,15291,0.084,551
2019-12-06T13:24:42,42.805,6.029,CST-1368DR,7215,10110,15291,0.084,551
2019-12-06T13:27:44,42.805,6.029,CST-1368DR,7215,10108,15288,0.085,550
2019-12-06T13:30:46,42.805,6.029,CST-1368DR,7215,10109,15290,0.084,551
2019-12-06T13:33:48,42.805,6.029,CST-1368DR,7215,10109,15289,0.085,551
2019-12-06T13:36:49,42.805,6.029,CST-1368DR,7215,10107,15287,0.085,551
2019-12-06T13:39:51,42.805,6.029,CST-1368DR,7215,10110,15291,0.084,551
2019-12-06T13:42:52,42.805,6.029,CST-1368DR,7215,10109,15290,0.084,551
2019-12-06T13:45:54,42.805,6.029,CST-1368DR,7215,10107,15287,0.085,551
2019-12-06T13:48:56,42.805,6.029,CST-1368DR,7215,10110,15291,0.084,550
2019-12-06T13:51:57,42.805,6.029,CST-1368DR,7215,10110,15291,0.084,551
2019-12-06T13:54:59,42.805,6.029,CST-1368DR,7215,10109,15290,0.084,551
2019-12-06T13:58:01,42.805,6.029,CST-1368DR,7215,10108,15289,0.085,551
2019-12-06T14:01:02,42.805,6.029,CST-1368DR,7215,10109,15290,0.084,551
2019-12-06T14:04:04,42.805,6.029,CST-1368DR,7215,10109,15290,0.084,551
2019-12-06T14:07:05,42.805,6.029,CST-1368DR,7215,10109,15290,0.084,551
2019-12-06T14:10:07,42.805,6.029,CST-1368DR,7215,10109,15290,0.084,551
2019-12-06T14:13:09,42.805,6.029,CST-1368DR,7215,10111,15292,0.084,551
2019-12-06T14:16:10,42.805,6.029,CST-1368DR,7215,10109,15290,0.084,551
2019-12-06T14:19:12,42.805,6.029,CST-1368DR,7215,10111,15293,0.084,551
2019-12-06T14:22:14,42.805,6.029,CST-1368DR,7215,10110,15291,0.084,551
2019-12-06T14:25:15,42.805,6.029,CST-1368DR,7215,10109,15290,0.084,551
2019-12-06T14:28:17,42.805,6.029,CST-1368DR,7215,10111,15293,0.084,551
2019-12-06T14:31:19,42.805,6.029,CST-1368DR,7215,10112,15294,0.083,551
2019-12-06T14:34:20,42.805,6.029,CST-1368DR,7215,10106,15286,0.085,551
2019-12-06T14:37:22,42.805,6.029,CST-1368DR,7215,10110,15291,0.084,551
2019-12-06T14:40:24,42.805,6.029,CST-1368DR,7215,10111,15293,0.084,551
2019-12-06T14:43:26,42.805,6.029,CST-1368DR,7215,10110,15291,0.084,551
2019-12-06T14:46:28,42.805,6.029,CST-1368DR,7215,10109,15290,0.084,551
2019-12-06T14:49:29,42.805,6.029,CST-1368DR,7215,10111,15293,0.084,551
2019-12-06T14:52:31,42.805,6.029,CST-1368DR,7215,10110,15291,0.084,551
2019-12-06T14:55:32,42.805,6.029,CST-1368DR,7215,10103,15280,0.087,551
2019-12-06T14:58:34,42.805,6.029,CST-1368DR,7215,10109,15290,0.084,551
2019-12-06T15:01:36,42.805,6.029,CST-1368DR,7215,10110,15291,0.084,551
2019-12-06T15:04:37,42.805,6.029,CST-1368DR,7214,10110,15293,0.084,551
2019-12-06T15:07:39,42.805,6.029,CST-1368DR,7215,10109,15290,0.084,551
2019-12-06T15:10:40,42.805,6.029,CST-1368DR,7215,10111,15293,0.084,550
2019-12-06T15:13:42,42.805,6.029,CST-1368DR,7214,10110,15294,0.083,551
2019-12-06T15:16:44,42.805,6.029,CST-1368DR,7214,10110,15293,0.084,551
2019-12-06T15:19:45,42.805,6.029,CST-1368DR,7214,10111,15294,0.083,551
2019-12-06T15:22:47,42.805,6.029,CST-1368DR,7214,10110,15294,0.083,551
2019-12-06T15:25:49,42.805,6.029,CST-1368DR,7214,10111,15294,0.083,551
2019-12-06T15:28:50,42.805,6.029,CST-1368DR,7214,10110,15293,0.084,551
2019-12-06T15:31:52,42.805,6.029,CST-1368DR,7214,10110,15293,0.084,551
2019-12-06T15:34:53,42.805,6.029,CST-1368DR,7214,10109,15292,0.084,550
2019-12-06T15:37:55,42.805,6.029,CST-1368DR,7214,10110,15293,0.084,551
2019-12-06T15:40:57,42.805,6.029,CST-1368DR,7214,10108,15291,0.084,551
2019-12-06T15:43:58,42.805,6.029,CST-1368DR,7214,10111,15295,0.083,551
2019-12-06T15:47:00,42.805,6.029,CST-1368DR,7214,10110,15293,0.084,551
2019-12-06T15:50:02,42.805,6.029,CST-1368DR,7214,10110,15294,0.083,551
2019-12-06T15:53:03,42.805,6.029,CST-1368DR,7214,10110,15294,0.083,551
2019-12-06T15:56:05,42.805,6.029,CST-1368DR,7214,10110,15293,0.084,551
2019-12-06T15:59:06,42.805,6.029,CST-1368DR,7215,10109,15290,0.084,551
2019-12-06T16:02:08,42.805,6.029,CST-1368DR,7214,10110,15293,0.084,551
2019-12-06T16:05:10,42.805,6.029,CST-1368DR,7214,10111,15294,0.083,551
2019-12-06T16:08:11,42.805,6.029,CST-1368DR,7214,10111,15295,0.083,550
2019-12-06T16:11:13,42.805,6.029,CST-1368DR,7214,10110,15293,0.084,551
2019-12-06T16:14:15,42.805,6.029,CST-1368DR,7214,10111,15294,0.083,551
2019-12-06T16:17:16,42.805,6.029,CST-1368DR,7214,10110,15293,0.084,551
2019-12-06T16:20:18,42.805,6.029,CST-1368DR,7214,10110,15293,0.084,551
2019-12-06T16:23:20,42.805,6.029,CST-1368DR,7214,10110,15293,0.084,551
2019-12-06T16:26:21,42.805,6.029,CST-1368DR,7214,10109,15292,0.084,551
2019-12-06T16:29:23,42.805,6.029,CST-1368DR,7214,10110,15293,0.084,551
2019-12-06T16:32:24,42.805,6.029,CST-1368DR,7214,10110,15293,0.084,551
2019-12-06T16:35:26,42.805,6.029,CST-1368DR,7214,10110,15293,0.084,551
2019-12-06T16:38:28,42.805,6.029,CST-1368DR,7214,10109,15292,0.084,551